Flag for Albania Weather past 2 weeks in Tirana, Albania

Now
72 °F

Clear.


Feels Like: 69 °F
Forecast: 64 / 84 °F
Wind: No wind

Location: Tirana Airport

Current Time: Jul 28, 2014 at 9:51:22 PM

Latest Report: Jul 28, 2014 at 9:20 PM


Visibility: 10 mi

Pressure: 29.89 "Hg

Humidity: 88%

Dew point: 68 °F

Location of TiranaLocation

Historic Weather in Tirana — Graph

°F

Tirana temperature yesterday

Maximum temperature yesterday: 90 °F (at 12:50 PM)
Minimum temperature yesterday: 72 °F (at 4:50 AM)
Average temperature yesterday: 79 °F

Past Weeks' High & Low Weather Summary

 TemperatureHumidityPressure
High91 °F (Jul 19, 1:50 PM)94% (Jul 14, 3:50 AM)29.98 "Hg (Jul 14, 3:50 AM)
Low59 °F (Jul 16, 2:50 AM)34% (Jul 19, 2:50 PM)29.71 "Hg (Jul 22, 3:50 PM)
Average75 °F69%29.88 "Hg
* Reported Jul 13 8:20 PM — Jul 28 8:20 PM, Tirana, Weather by CustomWeather, © 2014

Note: Actual official high and low records may vary slightly from our data, if they occured in-between our weather recording intervals... More about our weather records

Advertising

Tirana weather history for previous 24 hours

 ConditionsComfort  
Time TempWeatherWind HumidityBarometerVisibility
8:20 PM
Jul 28
75 °FSunny.3 mph74%29.89 "Hg10 mi
7:50 PM75 °FSunny.3 mph74%29.86 "Hg10 mi
7:20 PM77 °FPassing clouds.5 mph69%29.86 "HgN/A
6:50 PM79 °FPassing clouds.5 mph65%29.86 "HgN/A
6:20 PM79 °FPassing clouds.7 mph58%29.86 "HgN/A
5:50 PM81 °FPassing clouds.6 mph54%29.89 "HgN/A
5:20 PM82 °FPassing clouds.6 mph51%29.89 "HgN/A
4:50 PM84 °FScattered clouds.5 mph55%29.89 "HgN/A
4:20 PM82 °FScattered clouds.2 mph55%29.89 "HgN/A
3:50 PM82 °FScattered clouds.2 mph55%29.89 "HgN/A
3:20 PM79 °FScattered clouds.3 mph58%29.89 "HgN/A
2:50 PM75 °FScattered clouds.2 mph74%29.89 "HgN/A
2:20 PM79 °FLight rain. Scattered clouds.No wind61%29.89 "HgN/A
1:50 PM81 °FScattered clouds.3 mph62%29.89 "HgN/A
1:20 PM79 °FBroken clouds.1 mph61%29.89 "HgN/A
12:50 PM79 °FBroken clouds.3 mph65%29.92 "HgN/A
12:20 PM77 °FBroken clouds.7 mph69%29.92 "HgN/A
11:50 AM77 °FBroken clouds.8 mph69%29.89 "HgN/A
11:20 AM75 °FBroken clouds.10 mph69%29.89 "HgN/A
10:50 AM75 °FBroken clouds.7 mph65%29.89 "HgN/A
10:20 AM79 °FScattered clouds.6 mph65%29.89 "HgN/A
9:50 AM75 °FScattered clouds.6 mph65%29.89 "HgN/A
9:20 AM75 °FScattered clouds.5 mph69%29.89 "HgN/A
8:50 AM73 °FScattered clouds.8 mph78%29.89 "HgN/A
8:20 AM73 °FScattered clouds.7 mph78%29.89 "HgN/A
7:50 AM73 °FScattered clouds.No wind74%29.89 "HgN/A
7:20 AM72 °FScattered clouds.6 mph83%29.86 "HgN/A
6:50 AM70 °FSunny.2 mph83%29.86 "Hg10 mi
6:20 AM68 °FPassing clouds.5 mph83%29.86 "HgN/A
5:50 AM66 °FPassing clouds.7 mph94%29.86 "HgN/A
5:20 AM68 °FPartly cloudy.6 mph88%29.86 "HgN/A
4:20 AM68 °FLight rain. Partly cloudy.10 mph88%29.89 "HgN/A
3:50 AM66 °FLight rain. Mostly cloudy.14 mph94%29.89 "HgN/A
3:20 AM66 °FThunderstorms. Overcast.10 mph94%29.89 "HgN/A
2:50 AM66 °FHeavy rain. Mostly cloudy.2 mph94%29.92 "Hg1 mi
2:20 AM66 °FStrong thunderstorms. Mostly cloudy.14 mph88%29.92 "Hg1 mi
1:50 AM68 °FStrong thunderstorms. Mostly cloudy.22 mph88%29.86 "Hg3 mi
1:20 AM72 °FThundershowers. Partly cloudy.13 mph73%29.89 "HgN/A
12:50 AM73 °FThundershowers. Partly cloudy.No wind74%29.86 "HgN/A
12:20 AM73 °FPassing clouds.5 mph74%29.86 "HgN/A
11:50 PM
Jul 27
73 °FPassing clouds.5 mph69%29.86 "HgN/A
11:20 PM72 °FPassing clouds.7 mph78%29.86 "HgN/A
10:50 PM75 °FPassing clouds.6 mph65%29.86 "HgN/A
10:20 PM75 °FPassing clouds.2 mph65%29.89 "HgN/A
9:50 PM77 °FPassing clouds.2 mph61%29.89 "HgN/A
9:20 PM77 °FPassing clouds.3 mph65%29.89 "HgN/A
Weather by CustomWeather, © 2014

See weather overviewHow to use our weather pages